Location: Antioch
(38.0049°N, 121.8058°W)
Time: 22:28:50
(UTC+00:00)

Cosmos 2208 Rocket - Pass Details

Date: 25 May 2026
Orbit: 751 x 800 km, 74.0° (Epoch: 7 June)

Event Time Altitude Azimuth Distance (km) Brightness Sun altitude
Exits shadow 07:59:21 49° 30° (NNE) 983 4.7 -31.0°
Drops below altitude 10° 08:03:10 10° 21° (NNE) 2,304 7.2 -31.0°
Sets 08:05:31 0° 20° (NNE) 3,227 8.2 -31.0°
